Weather History for Quillayute, WA

Change the Weather History Date:

Friday, April 25, 2014

  Actual Average Record
Temperature  
Mean Temperature 46 °F 48 °F  
Max Temperature 54 °F 56 °F 75 °F (1971)
Min Temperature 38 °F 39 °F 26 °F (1999)
Degree Days  
Heating Degree Days 19 17  
Month to date heating degree days 441 465  
Since 1 July heating degree days 4221 4958  
Cooling Degree Days 0 0  
Month to date cooling degree days 0 0  
Year to date cooling degree days 0 0  
Moisture  
Dew Point 40 °F    
Average Humidity 80    
Maximum Humidity 100    
Minimum Humidity 59    
Precipitation  
Precipitation T in 0.24 in 2.33 in (2012)
Month to date precipitation 8.66 6.79  
Year to date precipitation 47.04 42.58  
Sea Level Pressure  
Sea Level Pressure 29.88 in    
Wind  
Wind Speed 5 mph (NNW)    
Max Wind Speed 15 mph    
Max Gust Speed 19 mph    
Visibility 7 miles    
Events Rain    
T = Trace of Precipitation, MM = Missing Value Source: NWS Daily Summary

Daily Weather History Graph

Daily Weather History Graph

Search for Another Location

Airport:

Trip Planner

Search our weather history database for the weather conditions in past years. The results will help you decide how hot, cold, wet, or windy it might be!

Date:

Astronomy

Apr. 25, 2014 Rise Set
Actual Time 6:10 AM PDT 8:22 PM PDT
Civil Twilight 5:36 AM PDT 8:56 PM PDT
Nautical Twilight 4:54 AM PDT 9:39 PM PDT
Astronomical Twilight 4:07 AM PDT 10:27 PM PDT
Moon 4:19 AM PDT (4/25) 4:36 PM PDT (4/25)
Length of Visible Light 15h 20m
Length of Day
14h 12m
Waning Crescent, 14% of the Moon is Illuminated
Apr 25
Waning Crescent
Apr 28
New
May 6
First Quarter
May 14
Full
May 21
Last Quarter

Hourly Weather History & Observations

Time (PDT) Temp. Windchill Dew Point Humidity Pressure Visibility Wind Dir Wind Speed Gust Speed Precip Events Conditions
12:53 AM 43.0 °F 41.3 °F 42.1 °F 97% 29.89 in 6.0 mi East 3.5 mph - 0.01 in Rain Light Rain
1:53 AM 42.1 °F 40.2 °F 41.0 °F 96% 29.89 in 7.0 mi East 3.5 mph - 0.00 in   Mostly Cloudy
2:53 AM 42.1 °F 40.2 °F 41.0 °F 96% 29.88 in 8.0 mi ENE 3.5 mph - N/A   Overcast
3:21 AM 41.0 °F 38.0 °F 39.9 °F 96% 29.87 in 8.0 mi East 4.6 mph - N/A   Scattered Clouds
3:53 AM 41.0 °F 37.1 °F 39.9 °F 96% 29.88 in 7.0 mi ENE 5.8 mph - 0.00 in Rain Light Rain
4:53 AM 41.0 °F - 39.9 °F 96% 29.88 in 7.0 mi Calm Calm - 0.00 in Rain Light Rain
5:53 AM 37.9 °F 34.4 °F 37.9 °F 100% 29.88 in 8.0 mi NE 4.6 mph - 0.00 in   Mostly Cloudy
6:53 AM 39.0 °F 35.7 °F 37.9 °F 96% 29.88 in 7.0 mi ENE 4.6 mph - N/A   Partly Cloudy
7:53 AM 39.9 °F 36.7 °F 39.0 °F 97% 29.90 in 7.0 mi East 4.6 mph - N/A   Mostly Cloudy
8:53 AM 45.0 °F 43.5 °F 42.1 °F 90% 29.91 in 7.0 mi ESE 3.5 mph - N/A   Clear
9:53 AM 48.0 °F - 39.9 °F 74% 29.90 in 7.0 mi Calm Calm - N/A   Clear
10:17 AM 51.1 °F - 43.0 °F 74% 29.90 in 7.0 mi SSE 3.5 mph - N/A   Mostly Cloudy
10:27 AM 51.1 °F - 41.0 °F 68% 29.89 in 7.0 mi Variable 3.5 mph - N/A   Scattered Clouds
10:53 AM 50.0 °F - 41.0 °F 71% 29.90 in 7.0 mi WSW 5.8 mph - N/A   Mostly Cloudy
11:07 AM 48.9 °F - 41.0 °F 74% 29.89 in 7.0 mi WSW 5.8 mph - N/A   Mostly Cloudy
11:53 AM 51.1 °F - 41.0 °F 68% 29.89 in 6.0 mi West 8.1 mph - N/A   Haze
12:53 PM 52.0 °F - 41.0 °F 66% 29.89 in 7.0 mi West 11.5 mph - N/A   Mostly Cloudy
1:53 PM 50.0 °F - 42.1 °F 74% 29.89 in 7.0 mi North 5.8 mph - 0.00 in Rain Light Rain
2:53 PM 53.1 °F - 41.0 °F 64% 29.88 in 7.0 mi West 10.4 mph - 0.00 in   Overcast
3:53 PM 54.0 °F - 39.9 °F 59% 29.88 in 7.0 mi West 10.4 mph - N/A   Scattered Clouds
4:53 PM 53.1 °F - 39.0 °F 59% 29.88 in 7.0 mi West 10.4 mph - N/A   Partly Cloudy
5:53 PM 52.0 °F - 39.9 °F 63% 29.88 in 6.0 mi West 5.8 mph - N/A   Haze
6:53 PM 50.0 °F - 39.0 °F 66% 29.88 in 7.0 mi West 8.1 mph - N/A   Partly Cloudy
7:38 PM 48.0 °F - 39.9 °F 74% 29.87 in 7.0 mi NW 5.8 mph - N/A   Mostly Cloudy
7:53 PM 48.0 °F - 39.9 °F 74% 29.88 in 7.0 mi NW 4.6 mph - N/A   Scattered Clouds
8:53 PM 43.0 °F 41.3 °F 39.9 °F 89% 29.88 in 8.0 mi West 3.5 mph - N/A   Partly Cloudy
9:53 PM 41.0 °F - 39.2 °F 93% 29.88 in 8.0 mi Calm Calm - N/A   Mostly Cloudy
10:53 PM 39.9 °F 36.7 °F 37.9 °F 93% 29.87 in 7.0 mi East 4.6 mph - N/A   Clear
11:29 PM 39.9 °F - 39.0 °F 97% 29.86 in 7.0 mi Calm Calm - N/A   Mostly Cloudy
11:53 PM 39.0 °F 36.8 °F 37.9 °F 96% 29.86 in 7.0 mi East 3.5 mph - N/A   Mostly Cloudy